| time (UTC) | temp F | wind direction | speed MPH | gust MPH | rain 1hr in | rain 24hr in | rain mn in | humidity % | barometer mb |
| 20260902165528 | 68 | 84 | 0.0 | 2.0 | 0.00 | 0.04 | 0.00 | 89 | 1005.0 |
| 20260902165038 | 69 | 260 | 0.0 | 3.0 | 0.00 | 0.04 | 0.00 | 91 | 1005.0 |
| 20260902164527 | 69 | 212 | 0.0 | 5.0 | 0.00 | 0.04 | 0.00 | 91 | 1004.8 |
| 20260902164055 | 69 | 210 | 1.0 | 5.0 | 0.00 | 0.04 | 0.00 | 92 | 1004.8 |
| 20260902163608 | 68 | 352 | 0.0 | 2.0 | 0.00 | 0.04 | 0.00 | 93 | 1004.9 |
| 20260902163033 | 68 | 269 | 0.0 | 2.0 | 0.00 | 0.04 | 0.00 | 94 | 1005.2 |
| 20260902162533 | 68 | 295 | 1.0 | 2.0 | 0.00 | 0.04 | 0.00 | 95 | 1005.0 |
| 20260902162042 | 68 | 303 | 0.0 | 1.0 | 0.00 | 0.04 | 0.00 | 99 | 1005.0 |
| 20260902161520 | 68 | 268 | 0.0 | 2.0 | 0.00 | 0.04 | 0.00 | 99 | 1005.2 |
| 20260902161025 | 68 | 268 | 0.0 | 2.0 | 0.00 | 0.04 | 0.00 | 99 | 1005.2 |
| 20260902160537 | 68 | 271 | 0.0 | 1.0 | 0.00 | 0.04 | 0.00 | 99 | 1005.2 |
| 20260902160045 | 68 | 278 | 0.0 | 1.0 | 0.00 | 0.06 | 0.00 | 100 | 1005.1 |
| 20260902155524 | 67 | 278 | 0.0 | 1.0 | 0.00 | 0.06 | 0.00 | 100 | 1005.2 |
| 20260902155045 | 67 | 278 | 0.0 | 1.0 | 0.00 | 0.06 | 0.00 | 100 | 1005.2 |
| 20260902154523 | 67 | 278 | 0.0 | 1.0 | 0.00 | 0.06 | 0.00 | 100 | 1005.4 |
| 20260902154033 | 67 | 34 | 0.0 | 1.0 | 0.00 | 0.06 | 0.00 | 100 | 1005.4 |
| 20260902153536 | 67 | 323 | 0.0 | 1.0 | 0.00 | 0.06 | 0.00 | 100 | 1005.5 |
| 20260902153023 | 67 | 69 | 0.0 | 2.0 | 0.00 | 0.06 | 0.00 | 100 | 1005.7 |
| 20260902152532 | 67 | 13 | 0.0 | 3.0 | 0.00 | 0.06 | 0.00 | 100 | 1005.7 |
| 20260902152032 | 67 | 275 | 1.0 | 3.0 | 0.00 | 0.06 | 0.00 | 100 | 1005.8 |
| 20260902151521 | 66 | 269 | 1.0 | 3.0 | 0.00 | 0.06 | 0.00 | 100 | 1005.8 |
| 20260902151022 | 67 | 286 | 1.0 | 3.0 | 0.00 | 0.06 | 0.00 | 100 | 1005.9 |
| 20260902150533 | 66 | 287 | 0.0 | 1.0 | 0.00 | 0.06 | 0.00 | 100 | 1005.9 |
| 20260902150021 | 66 | 292 | 0.0 | 3.0 | 0.00 | 0.18 | 0.00 | 100 | 1005.8 |
| 20260902145521 | 66 | 292 | 0.0 | 3.0 | 0.00 | 0.18 | 0.00 | 100 | 1005.8 |
| 20260902145027 | 66 | 304 | 0.0 | 2.0 | 0.00 | 0.18 | 0.00 | 100 | 1005.8 |
| 20260902144536 | 66 | 276 | 0.0 | 1.0 | 0.00 | 0.18 | 0.00 | 100 | 1005.9 |
| 20260902144045 | 66 | 274 | 0.0 | 2.0 | 0.00 | 0.18 | 0.00 | 100 | 1005.9 |
| 20260902143524 | 66 | 10 | 0.0 | 2.0 | 0.00 | 0.18 | 0.00 | 100 | 1005.9 |
| 20260902143032 | 66 | 302 | 0.0 | 2.0 | 0.00 | 0.18 | 0.00 | 100 | 1006.0 |
| 20260902142543 | 65 | 98 | 0.0 | 2.0 | 0.00 | 0.18 | 0.00 | 100 | 1006.0 |
| 20260902142048 | 65 | 245 | 0.0 | 2.0 | 0.00 | 0.18 | 0.00 | 100 | 1006.0 |
| 20260902141525 | 65 | 267 | 0.0 | 2.0 | 0.00 | 0.18 | 0.00 | 100 | 1005.9 |
| 20260902141034 | 65 | 3 | 0.0 | 1.0 | 0.00 | 0.18 | 0.00 | 100 | 1005.9 |
| 20260902140546 | 65 | 3 | 0.0 | 2.0 | 0.00 | 0.18 | 0.00 | 100 | 1005.8 |
| 20260902140048 | 65 | 317 | 0.0 | 2.0 | 0.00 | 0.18 | 0.00 | 100 | 1005.9 |
| 20260902135547 | 65 | 290 | 0.0 | 1.0 | 0.00 | 0.18 | 0.00 | 100 | 1005.6 |
| 20260902135036 | 65 | 290 | 0.0 | 2.0 | 0.00 | 0.18 | 0.00 | 100 | 1005.6 |
| 20260902134542 | 64 | 166 | 0.0 | 2.0 | 0.00 | 0.18 | 0.00 | 100 | 1005.7 |
| 20260902134022 | 64 | 268 | 1.0 | 2.0 | 0.00 | 0.18 | 0.00 | 100 | 1005.7 |
| 20260902133534 | 64 | 309 | 0.0 | 3.0 | 0.00 | 0.18 | 0.00 | 100 | 1005.7 |
| 20260902133042 | 64 | 309 | 0.0 | 3.0 | 0.00 | 0.18 | 0.00 | 100 | 1005.8 |
| 20260902132523 | 64 | 285 | 0.0 | 2.0 | 0.00 | 0.18 | 0.00 | 100 | 1005.7 |
| 20260902132032 | 65 | 48 | 0.0 | 1.0 | 0.00 | 0.18 | 0.00 | 100 | 1005.7 |
| 20260902131542 | 65 | 49 | 0.0 | 1.0 | 0.00 | 0.18 | 0.00 | 100 | 1005.7 |
| 20260902131023 | 65 | 49 | 0.0 | 1.0 | 0.00 | 0.18 | 0.00 | 100 | 1005.5 |
| 20260902130535 | 65 | 49 | 0.0 | 1.0 | 0.00 | 0.18 | 0.00 | 100 | 1005.3 |
| 20260902130031 | 65 | 48 | 0.0 | 2.0 | 0.00 | 0.20 | 0.00 | 100 | 1005.2 |
| 20260902125519 | 65 | 48 | 0.0 | 2.0 | 0.00 | 0.20 | 0.00 | 100 | 1005.1 |
| 20260902125029 | 65 | 252 | 0.0 | 1.0 | 0.00 | 0.20 | 0.00 | 100 | 1005.1 |
| 20260902124557 | 65 | 252 | 0.0 | 1.0 | 0.00 | 0.20 | 0.00 | 100 | 1005.0 |
| 20260902124108 | 65 | 252 | 0.0 | 1.0 | 0.00 | 0.20 | 0.00 | 100 | 1005.1 |
| 20260902123529 | 64 | 252 | 0.0 | 1.0 | 0.00 | 0.20 | 0.00 | 100 | 1005.1 |
| 20260902123037 | 64 | 252 | 0.0 | 1.0 | 0.00 | 0.20 | 0.00 | 100 | 1005.2 |
| 20260902122542 | 64 | 252 | 0.0 | 1.0 | 0.00 | 0.20 | 0.00 | 100 | 1005.1 |
| 20260902122022 | 64 | 252 | 0.0 | 1.0 | 0.00 | 0.20 | 0.00 | 100 | 1005.2 |
| 20260902121531 | 64 | 252 | 0.0 | 1.0 | 0.00 | 0.20 | 0.00 | 100 | 1005.2 |
| 20260902121041 | 64 | 259 | 0.0 | 1.0 | 0.00 | 0.20 | 0.00 | 100 | 1005.2 |
| 20260902120524 | 64 | 259 | 0.0 | 1.0 | 0.00 | 0.20 | 0.00 | 100 | 1005.1 |
| 20260902120031 | 64 | 259 | 0.0 | 1.0 | 0.00 | 0.22 | 0.00 | 100 | 1005.1 |
| 20260902115532 | 65 | 258 | 0.0 | 0.0 | 0.00 | 0.22 | 0.00 | 100 | 1005.0 |
| 20260902115021 | 65 | 258 | 0.0 | 0.0 | 0.00 | 0.22 | 0.00 | 100 | 1005.0 |
| 20260902114549 | 64 | 258 | 0.0 | 0.0 | 0.00 | 0.22 | 0.00 | 100 | 1004.8 |
| 20260902114100 | 64 | 258 | 0.0 | 0.0 | 0.00 | 0.22 | 0.00 | 100 | 1005.0 |
| 20260902113521 | 64 | 258 | 0.0 | 0.0 | 0.00 | 0.22 | 0.00 | 100 | 1004.9 |
| 20260902113036 | 64 | 258 | 0.0 | 0.0 | 0.00 | 0.22 | 0.00 | 100 | 1004.9 |
| 20260902112545 | 64 | 258 | 0.0 | 2.0 | 0.00 | 0.22 | 0.00 | 100 | 1005.0 |
| 20260902112026 | 64 | 258 | 0.0 | 2.0 | 0.00 | 0.22 | 0.00 | 100 | 1005.2 |
| 20260902111531 | 64 | 278 | 0.0 | 1.0 | 0.00 | 0.22 | 0.00 | 100 | 1005.2 |
| 20260902111038 | 64 | 297 | 0.0 | 1.0 | 0.00 | 0.22 | 0.00 | 100 | 1005.3 |
| 20260902110539 | 64 | 297 | 0.0 | 0.0 | 0.00 | 0.22 | 0.00 | 100 | 1005.3 |
| 20260902110028 | 64 | 297 | 0.0 | 0.0 | 0.00 | 0.39 | 0.00 | 100 | 1005.2 |
| 20260902105528 | 64 | 297 | 0.0 | 1.0 | 0.00 | 0.39 | 0.00 | 100 | 1005.3 |
| 20260902105037 | 64 | 297 | 0.0 | 1.0 | 0.00 | 0.39 | 0.00 | 100 | 1005.3 |
| 20260902104546 | 64 | 62 | 0.0 | 0.0 | 0.00 | 0.39 | 0.00 | 100 | 1005.3 |
| 20260902104035 | 64 | 63 | 0.0 | 0.0 | 0.00 | 0.39 | 0.00 | 100 | 1005.1 |
| 20260902103537 | 64 | 63 | 0.0 | 0.0 | 0.00 | 0.39 | 0.00 | 100 | 1005.1 |
| 20260902103025 | 64 | 63 | 0.0 | 0.0 | 0.00 | 0.39 | 0.00 | 100 | 1005.1 |
| 20260902102535 | 64 | 63 | 0.0 | 1.0 | 0.00 | 0.39 | 0.00 | 100 | 1005.0 |
| 20260902102035 | 64 | 63 | 0.0 | 1.0 | 0.00 | 0.39 | 0.00 | 100 | 1005.0 |
| 20260902101524 | 64 | 62 | 0.0 | 0.0 | 0.00 | 0.39 | 0.00 | 100 | 1005.0 |
| 20260902101035 | 64 | 62 | 0.0 | 0.0 | 0.00 | 0.39 | 0.00 | 100 | 1004.9 |
| 20260902100535 | 64 | 63 | 0.0 | 0.0 | 0.00 | 0.39 | 0.00 | 100 | 1004.9 |
| 20260902100024 | 64 | 63 | 0.0 | 0.0 | 0.00 | 0.54 | 0.00 | 100 | 1004.9 |
| 20260902095524 | 64 | 63 | 0.0 | 0.0 | 0.00 | 0.54 | 0.00 | 100 | 1004.8 |
| 20260902095029 | 64 | 63 | 0.0 | 0.0 | 0.00 | 0.54 | 0.00 | 100 | 1004.8 |
| 20260902094520 | 64 | 63 | 0.0 | 0.0 | 0.00 | 0.54 | 0.00 | 100 | 1004.8 |
| 20260902094048 | 64 | 63 | 0.0 | 0.0 | 0.00 | 0.54 | 0.00 | 100 | 1004.7 |
| 20260902093531 | 64 | 63 | 0.0 | 0.0 | 0.00 | 0.54 | 0.00 | 100 | 1004.7 |
| 20260902093037 | 64 | 63 | 0.0 | 0.0 | 0.00 | 0.54 | 0.00 | 100 | 1004.7 |
| 20260902092547 | 64 | 63 | 0.0 | 0.0 | 0.00 | 0.54 | 0.00 | 100 | 1004.6 |
| 20260902092027 | 64 | 63 | 0.0 | 0.0 | 0.00 | 0.54 | 0.00 | 100 | 1004.7 |
| 20260902091536 | 64 | 63 | 0.0 | 0.0 | 0.00 | 0.54 | 0.00 | 100 | 1004.5 |
| 20260902091037 | 64 | 63 | 0.0 | 0.0 | 0.00 | 0.54 | 0.00 | 100 | 1004.4 |
| 20260902090528 | 64 | 63 | 0.0 | 0.0 | 0.00 | 0.54 | 0.00 | 100 | 1004.5 |
| 20260902090036 | 64 | 63 | 0.0 | 0.0 | 0.00 | 0.55 | 0.00 | 100 | 1004.5 |
| 20260902085537 | 64 | 63 | 0.0 | 0.0 | 0.00 | 0.55 | 0.00 | 100 | 1004.6 |
| 20260902085025 | 64 | 63 | 0.0 | 1.0 | 0.00 | 0.55 | 0.00 | 100 | 1004.6 |
| 20260902084526 | 64 | 62 | 0.0 | 0.0 | 0.00 | 0.55 | 0.00 | 100 | 1004.6 |
| 20260902084035 | 64 | 62 | 0.0 | 1.0 | 0.00 | 0.55 | 0.00 | 100 | 1004.6 |
| 20260902083526 | 64 | 63 | 0.0 | 2.0 | 0.00 | 0.55 | 0.00 | 100 | 1004.6 |
| 20260902083025 | 64 | 344 | 0.0 | 2.0 | 0.00 | 0.55 | 0.00 | 100 | 1004.6 |
| 20260902082534 | 64 | 304 | 0.0 | 1.0 | 0.00 | 0.55 | 0.00 | 100 | 1004.5 |
| 20260902082025 | 64 | 302 | 0.0 | 1.0 | 0.00 | 0.55 | 0.00 | 100 | 1004.4 |
| 20260902081549 | 64 | 141 | 0.0 | 1.0 | 0.00 | 0.55 | 0.00 | 100 | 1004.4 |
| 20260902081048 | 64 | 141 | 0.0 | 0.0 | 0.00 | 0.55 | 0.00 | 100 | 1004.5 |
| 20260902080557 | 64 | 141 | 0.0 | 0.0 | 0.00 | 0.55 | 0.00 | 100 | 1004.5 |
| 20260902080042 | 64 | 141 | 0.0 | 2.0 | 0.00 | 0.55 | 0.00 | 100 | 1004.6 |
| 20260902075530 | 64 | 141 | 0.0 | 2.0 | 0.00 | 0.55 | 0.00 | 100 | 1004.4 |
| 20260902075040 | 64 | 269 | 0.0 | 1.0 | 0.00 | 0.55 | 0.00 | 100 | 1004.2 |
| 20260902074541 | 64 | 269 | 0.0 | 1.0 | 0.00 | 0.55 | 0.00 | 100 | 1004.3 |
| 20260902074027 | 64 | 268 | 0.0 | 1.0 | 0.00 | 0.55 | 0.00 | 100 | 1004.3 |
| 20260902073539 | 64 | 66 | 0.0 | 1.0 | 0.00 | 0.55 | 0.00 | 100 | 1004.2 |
| 20260902073038 | 64 | 66 | 0.0 | 1.0 | 0.00 | 0.55 | 0.00 | 100 | 1004.1 |
| 20260902072527 | 64 | 304 | 0.0 | 1.0 | 0.00 | 0.55 | 0.00 | 100 | 1004.2 |
| 20260902072027 | 64 | 304 | 0.0 | 1.0 | 0.00 | 0.55 | 0.00 | 100 | 1004.2 |
| 20260902071537 | 64 | 282 | 0.0 | 1.0 | 0.00 | 0.55 | 0.00 | 100 | 1004.4 |
| 20260902071041 | 64 | 123 | 0.0 | 0.0 | 0.00 | 0.55 | 0.00 | 100 | 1004.3 |
| 20260902070532 | 64 | 124 | 0.0 | 1.0 | 0.00 | 0.55 | 0.00 | 100 | 1004.3 |
| 20260902070030 | 64 | 124 | 0.0 | 1.0 | 0.00 | 0.55 | 0.00 | 100 | 1004.4 |
| 20260902065539 | 64 | 117 | 0.0 | 0.0 | 0.00 | 0.55 | 0.00 | 100 | 1004.6 |
| 20260902065028 | 64 | 117 | 0.0 | 0.0 | 0.00 | 0.55 | 0.00 | 100 | 1004.4 |
| 20260902064529 | 64 | 117 | 0.0 | 0.0 | 0.00 | 0.55 | 0.00 | 100 | 1004.3 |
| 20260902064039 | 64 | 117 | 0.0 | 0.0 | 0.00 | 0.55 | 0.00 | 100 | 1004.3 |
| 20260902063522 | 64 | 117 | 0.0 | 0.0 | 0.00 | 0.55 | 0.00 | 100 | 1004.4 |
| 20260902063030 | 64 | 117 | 0.0 | 0.0 | 0.00 | 0.55 | 0.00 | 100 | 1004.4 |
| 20260902062519 | 64 | 117 | 0.0 | 1.0 | 0.00 | 0.55 | 0.00 | 100 | 1004.5 |
| 20260902062046 | 64 | 117 | 0.0 | 1.0 | 0.00 | 0.55 | 0.00 | 100 | 1004.5 |
| 20260902061526 | 64 | 117 | 0.0 | 0.0 | 0.00 | 0.55 | 0.00 | 100 | 1004.6 |
| 20260902061036 | 64 | 117 | 0.0 | 0.0 | 0.00 | 0.55 | 0.00 | 100 | 1004.6 |
| 20260902060548 | 64 | 117 | 0.0 | 0.0 | 0.00 | 0.55 | 0.00 | 100 | 1004.5 |
| 20260902060026 | 64 | 117 | 0.0 | 0.0 | 0.00 | 0.55 | 0.00 | 100 | 1004.5 |
| 20260902055535 | 64 | 117 | 0.0 | 2.0 | 0.00 | 0.55 | 0.00 | 100 | 1004.3 |
| 20260902055035 | 64 | 117 | 0.0 | 2.0 | 0.00 | 0.55 | 0.00 | 100 | 1004.3 |
| 20260902054524 | 65 | 277 | 0.0 | 0.0 | 0.00 | 0.55 | 0.00 | 100 | 1004.3 |
| 20260902054029 | 65 | 277 | 0.0 | 0.0 | 0.00 | 0.55 | 0.00 | 100 | 1004.3 |
| 20260902053537 | 65 | 277 | 0.0 | 0.0 | 0.00 | 0.55 | 0.00 | 100 | 1004.2 |
| 20260902053045 | 65 | 277 | 0.0 | 0.0 | 0.00 | 0.55 | 0.00 | 100 | 1004.2 |
| 20260902052525 | 65 | 277 | 0.0 | 0.0 | 0.00 | 0.55 | 0.00 | 100 | 1004.0 |
| 20260902052035 | 65 | 277 | 0.0 | 0.0 | 0.00 | 0.55 | 0.00 | 100 | 1003.9 |
| 20260902051543 | 65 | 278 | 0.0 | 0.0 | 0.00 | 0.55 | 0.00 | 100 | 1003.8 |
| 20260902051023 | 65 | 277 | 0.0 | 0.0 | 0.00 | 0.55 | 0.00 | 100 | 1003.7 |
| 20260902050535 | 65 | 277 | 0.0 | 0.0 | 0.00 | 0.55 | 0.00 | 100 | 1003.8 |
| 20260902050023 | 65 | 277 | 0.0 | 0.0 | 0.00 | 0.55 | 0.00 | 100 | 1003.8 |
| 20260902045524 | 65 | 277 | 0.0 | 0.0 | 0.00 | 0.55 | 0.00 | 100 | 1003.7 |
| 20260902045033 | 65 | 277 | 0.0 | 0.0 | 0.00 | 0.55 | 0.00 | 100 | 1003.5 |
| 20260902044523 | 65 | 277 | 0.0 | 0.0 | 0.00 | 0.55 | 0.00 | 100 | 1003.4 |
| 20260902044024 | 65 | 277 | 0.0 | 0.0 | 0.00 | 0.55 | 0.00 | 100 | 1003.4 |
| 20260902043532 | 65 | 277 | 0.0 | 0.0 | 0.00 | 0.55 | 0.00 | 100 | 1003.5 |
| 20260902043036 | 65 | 278 | 0.0 | 0.0 | 0.00 | 0.55 | 0.00 | 100 | 1003.5 |
| 20260902042547 | 65 | 277 | 0.0 | 0.0 | 0.00 | 0.55 | 0.00 | 100 | 1003.5 |
| 20260902042026 | 65 | 277 | 0.0 | 0.0 | 0.00 | 0.55 | 0.00 | 100 | 1003.4 |
| 20260902041536 | 65 | 277 | 0.0 | 0.0 | 0.00 | 0.55 | 0.00 | 100 | 1003.5 |
| 20260902041036 | 65 | 277 | 0.0 | 0.0 | 0.00 | 0.55 | 0.00 | 100 | 1003.5 |
| 20260902040022 | 65 | 277 | 0.0 | 0.0 | 0.00 | 0.55 | 0.55 | 100 | 1003.4 |
| 20260902035532 | 65 | 277 | 0.0 | 0.0 | 0.00 | 0.55 | 0.55 | 100 | 1003.4 |
| 20260902035041 | 65 | 277 | 0.0 | 0.0 | 0.00 | 0.55 | 0.55 | 100 | 1003.3 |
| 20260902034522 | 65 | 278 | 0.0 | 0.0 | 0.00 | 0.55 | 0.55 | 100 | 1003.3 |
| 20260902034031 | 65 | 277 | 0.0 | 0.0 | 0.00 | 0.55 | 0.55 | 100 | 1003.1 |
| 20260902033542 | 65 | 277 | 0.0 | 0.0 | 0.00 | 0.55 | 0.55 | 100 | 1003.1 |
| 20260902033041 | 65 | 277 | 0.0 | 0.0 | 0.00 | 0.55 | 0.55 | 100 | 1003.1 |
| 20260902032547 | 65 | 277 | 0.0 | 0.0 | 0.00 | 0.55 | 0.55 | 100 | 1003.0 |
| 20260902032050 | 65 | 277 | 0.0 | 0.0 | 0.00 | 0.55 | 0.55 | 100 | 1003.1 |
| 20260902031557 | 65 | 277 | 0.0 | 0.0 | 0.00 | 0.55 | 0.55 | 100 | 1003.1 |
| 20260902031026 | 65 | 277 | 0.0 | 0.0 | 0.00 | 0.55 | 0.55 | 100 | 1002.9 |
| 20260902030522 | 65 | 277 | 0.0 | 0.0 | 0.00 | 0.55 | 0.55 | 100 | 1002.9 |
| 20260902030100 | 65 | 277 | 0.0 | 0.0 | 0.00 | 0.55 | 0.55 | 100 | 1003.0 |
| 20260902025609 | 65 | 278 | 0.0 | 0.0 | 0.00 | 0.55 | 0.55 | 100 | 1002.9 |
| 20260902025028 | 65 | 278 | 0.0 | 0.0 | 0.00 | 0.55 | 0.55 | 100 | 1002.9 |
| 20260902024537 | 65 | 277 | 0.0 | 0.0 | 0.00 | 0.55 | 0.55 | 100 | 1002.9 |
| 20260902024046 | 65 | 277 | 0.0 | 0.0 | 0.00 | 0.55 | 0.55 | 100 | 1002.9 |
| 20260902023528 | 65 | 277 | 0.0 | 0.0 | 0.00 | 0.55 | 0.55 | 100 | 1002.8 |
| 20260902023051 | 66 | 277 | 0.0 | 0.0 | 0.00 | 0.55 | 0.55 | 100 | 1003.0 |
| 20260902022554 | 66 | 277 | 0.0 | 0.0 | 0.00 | 0.55 | 0.55 | 100 | 1003.0 |
| 20260902022023 | 66 | 277 | 0.0 | 0.0 | 0.00 | 0.55 | 0.55 | 100 | 1002.8 |
| 20260902021524 | 66 | 277 | 0.0 | 0.0 | 0.00 | 0.55 | 0.55 | 100 | 1002.9 |
| 20260902021032 | 66 | 277 | 0.0 | 0.0 | 0.00 | 0.55 | 0.55 | 100 | 1002.8 |
| 20260902020544 | 66 | 277 | 0.0 | 0.0 | 0.00 | 0.55 | 0.55 | 100 | 1002.8 |
| 20260902020050 | 66 | 277 | 0.0 | 0.0 | 0.00 | 0.55 | 0.55 | 100 | 1002.9 |
| 20260902015601 | 66 | 277 | 0.0 | 0.0 | 0.00 | 0.55 | 0.55 | 100 | 1002.8 |
| 20260902015020 | 66 | 277 | 0.0 | 0.0 | 0.00 | 0.55 | 0.55 | 100 | 1002.8 |
| 20260902014530 | 66 | 278 | 0.0 | 0.0 | 0.00 | 0.55 | 0.55 | 100 | 1002.8 |
| 20260902014040 | 66 | 277 | 0.0 | 0.0 | 0.00 | 0.55 | 0.55 | 100 | 1002.8 |
| 20260902013522 | 66 | 278 | 0.0 | 1.0 | 0.00 | 0.55 | 0.55 | 100 | 1002.7 |
| 20260902013029 | 66 | 277 | 0.0 | 1.0 | 0.00 | 0.55 | 0.55 | 100 | 1002.6 |
| 20260902012529 | 66 | 277 | 0.0 | 1.0 | 0.00 | 0.55 | 0.55 | 100 | 1002.5 |
| 20260902012039 | 66 | 277 | 0.0 | 1.0 | 0.00 | 0.55 | 0.55 | 100 | 1002.5 |
| 20260902011528 | 66 | 277 | 0.0 | 0.0 | 0.00 | 0.55 | 0.55 | 100 | 1002.6 |
| 20260902011024 | 66 | 277 | 0.0 | 0.0 | 0.00 | 0.55 | 0.55 | 100 | 1002.5 |
| 20260902010535 | 66 | 277 | 0.0 | 0.0 | 0.00 | 0.55 | 0.55 | 100 | 1002.5 |
| 20260902010043 | 66 | 277 | 0.0 | 0.0 | 0.00 | 0.55 | 0.55 | 100 | 1002.5 |
| 20260902005524 | 66 | 277 | 0.0 | 1.0 | 0.00 | 0.55 | 0.55 | 100 | 1002.4 |
| 20260902005032 | 66 | 277 | 0.0 | 1.0 | 0.00 | 0.55 | 0.55 | 100 | 1002.4 |
| 20260902004542 | 66 | 277 | 0.0 | 0.0 | 0.00 | 0.55 | 0.55 | 100 | 1002.4 |
| 20260902004022 | 66 | 277 | 0.0 | 0.0 | 0.00 | 0.55 | 0.55 | 100 | 1002.3 |
| 20260902003534 | 66 | 277 | 0.0 | 0.0 | 0.00 | 0.55 | 0.55 | 100 | 1002.2 |
| 20260902003020 | 66 | 277 | 0.0 | 0.0 | 0.00 | 0.55 | 0.55 | 100 | 1002.2 |
| 20260902002527 | 67 | 277 | 0.0 | 0.0 | 0.00 | 0.55 | 0.55 | 100 | 1002.2 |
| 20260902002027 | 67 | 277 | 0.0 | 0.0 | 0.00 | 0.55 | 0.55 | 100 | 1002.2 |
| 20260902001536 | 67 | 277 | 0.0 | 0.0 | 0.00 | 0.55 | 0.55 | 100 | 1002.1 |
| 20260902001045 | 67 | 277 | 0.0 | 0.0 | 0.00 | 0.55 | 0.55 | 100 | 1002.2 |
| 20260902000552 | 67 | 277 | 0.0 | 0.0 | 0.00 | 0.55 | 0.55 | 100 | 1002.1 |
| 20260902000038 | 67 | 277 | 0.0 | 0.0 | 0.00 | 0.55 | 0.55 | 100 | 1002.1 |
| 20260901235549 | 67 | 277 | 0.0 | 0.0 | 0.00 | 0.55 | 0.55 | 100 | 1002.1 |
| 20260901235028 | 67 | 277 | 0.0 | 0.0 | 0.00 | 0.55 | 0.55 | 100 | 1002.1 |
| 20260901234537 | 67 | 277 | 0.0 | 0.0 | 0.00 | 0.55 | 0.55 | 100 | 1002.0 |
| 20260901234035 | 67 | 277 | 0.0 | 0.0 | 0.00 | 0.55 | 0.55 | 100 | 1002.0 |
| 20260901233526 | 67 | 277 | 0.0 | 0.0 | 0.00 | 0.55 | 0.55 | 100 | 1002.0 |
| 20260901233034 | 67 | 277 | 0.0 | 0.0 | 0.00 | 0.55 | 0.55 | 100 | 1001.9 |
| 20260901232534 | 67 | 277 | 0.0 | 0.0 | 0.00 | 0.55 | 0.55 | 100 | 1001.9 |
| 20260901232042 | 67 | 277 | 0.0 | 0.0 | 0.00 | 0.55 | 0.55 | 100 | 1001.8 |
| 20260901231529 | 67 | 277 | 0.0 | 0.0 | 0.00 | 0.55 | 0.55 | 100 | 1001.8 |
| 20260901231036 | 67 | 277 | 0.0 | 0.0 | 0.00 | 0.55 | 0.55 | 100 | 1001.8 |
| 20260901230527 | 68 | 277 | 0.0 | 0.0 | 0.00 | 0.55 | 0.55 | 100 | 1001.9 |
| 20260901230050 | 68 | 277 | 0.0 | 0.0 | 0.00 | 0.55 | 0.55 | 100 | 1001.8 |
| 20260901225601 | 68 | 277 | 0.0 | 0.0 | 0.00 | 0.55 | 0.55 | 100 | 1001.7 |
| 20260901225020 | 68 | 277 | 0.0 | 0.0 | 0.00 | 0.55 | 0.55 | 100 | 1001.8 |
| 20260901224530 | 68 | 277 | 0.0 | 0.0 | 0.00 | 0.55 | 0.55 | 100 | 1001.8 |
| 20260901224039 | 68 | 277 | 0.0 | 0.0 | 0.00 | 0.55 | 0.55 | 100 | 1001.7 |
| 20260901223541 | 68 | 277 | 0.0 | 0.0 | 0.00 | 0.55 | 0.55 | 100 | 1001.6 |
| 20260901223048 | 68 | 277 | 0.0 | 0.0 | 0.00 | 0.55 | 0.55 | 100 | 1001.5 |
| 20260901222536 | 68 | 277 | 0.0 | 0.0 | 0.00 | 0.55 | 0.55 | 100 | 1001.5 |
| 20260901222046 | 68 | 277 | 0.0 | 1.0 | 0.00 | 0.55 | 0.55 | 100 | 1001.5 |
| 20260901221526 | 68 | 277 | 0.0 | 1.0 | 0.00 | 0.55 | 0.55 | 100 | 1001.5 |
| 20260901221035 | 69 | 277 | 0.0 | 1.0 | 0.00 | 0.55 | 0.55 | 100 | 1001.5 |
| 20260901220547 | 69 | 277 | 0.0 | 1.0 | 0.00 | 0.55 | 0.55 | 100 | 1001.6 |
| 20260901220026 | 69 | 322 | 0.0 | 0.0 | 0.00 | 0.55 | 0.55 | 100 | 1001.7 |
| 20260901215535 | 69 | 322 | 0.0 | 0.0 | 0.00 | 0.55 | 0.55 | 100 | 1001.8 |
| 20260901215035 | 69 | 322 | 0.0 | 0.0 | 0.00 | 0.55 | 0.55 | 100 | 1001.8 |
| 20260901214521 | 69 | 322 | 0.0 | 0.0 | 0.00 | 0.55 | 0.55 | 100 | 1001.8 |
| 20260901214027 | 69 | 322 | 0.0 | 0.0 | 0.00 | 0.55 | 0.55 | 100 | 1001.8 |
| 20260901213529 | 69 | 322 | 0.0 | 0.0 | 0.00 | 0.55 | 0.55 | 100 | 1001.8 |
| 20260901213033 | 69 | 322 | 0.0 | 0.0 | 0.00 | 0.55 | 0.55 | 100 | 1001.7 |
| 20260901212543 | 70 | 322 | 0.0 | 0.0 | 0.00 | 0.55 | 0.55 | 100 | 1001.7 |
| 20260901212023 | 70 | 322 | 0.0 | 0.0 | 0.00 | 0.55 | 0.55 | 100 | 1001.6 |
| 20260901211532 | 70 | 322 | 0.0 | 0.0 | 0.00 | 0.55 | 0.55 | 100 | 1001.5 |
| 20260901211041 | 70 | 322 | 0.0 | 0.0 | 0.00 | 0.55 | 0.55 | 100 | 1001.6 |
| 20260901210553 | 70 | 322 | 0.0 | 0.0 | 0.00 | 0.55 | 0.55 | 100 | 1001.4 |
| 20260901210100 | 70 | 322 | 0.0 | 0.0 | 0.00 | 0.55 | 0.55 | 100 | 1001.4 |
| 20260901205520 | 70 | 322 | 0.0 | 0.0 | 0.00 | 0.55 | 0.55 | 100 | 1001.3 |
| 20260901205048 | 70 | 322 | 0.0 | 0.0 | 0.00 | 0.55 | 0.55 | 100 | 1001.3 |
| 20260901204556 | 70 | 322 | 0.0 | 1.0 | 0.00 | 0.55 | 0.55 | 100 | 1001.4 |
| 20260901204023 | 70 | 323 | 0.0 | 2.0 | 0.00 | 0.55 | 0.55 | 99 | 1001.3 |
| 20260901203522 | 70 | 330 | 1.0 | 2.0 | 0.00 | 0.55 | 0.55 | 100 | 1001.4 |
| 20260901203030 | 71 | 292 | 0.0 | 1.0 | 0.00 | 0.55 | 0.55 | 100 | 1001.3 |
| 20260901202540 | 71 | 133 | 0.0 | 1.0 | 0.00 | 0.55 | 0.55 | 100 | 1001.2 |
| 20260901202048 | 70 | 133 | 0.0 | 2.0 | 0.00 | 0.55 | 0.55 | 100 | 1001.4 |
| 20260901201527 | 70 | 242 | 0.0 | 2.0 | 0.00 | 0.55 | 0.55 | 100 | 1001.5 |
| 20260901201037 | 70 | 118 | 0.0 | 1.0 | 0.00 | 0.55 | 0.55 | 100 | 1001.5 |
| 20260901200529 | 70 | 118 | 0.0 | 1.0 | 0.00 | 0.55 | 0.55 | 100 | 1001.5 |
| 20260901200027 | 70 | 121 | 0.0 | 0.0 | 0.00 | 0.55 | 0.55 | 100 | 1001.5 |
| 20260901195535 | 70 | 121 | 0.0 | 0.0 | 0.00 | 0.55 | 0.55 | 100 | 1001.6 |
| 20260901195045 | 70 | 237 | 0.0 | 1.0 | 0.00 | 0.55 | 0.55 | 100 | 1001.6 |
| 20260901194525 | 70 | 110 | 0.0 | 1.0 | 0.00 | 0.55 | 0.55 | 100 | 1001.5 |
| 20260901194034 | 70 | 229 | 0.0 | 1.0 | 0.00 | 0.55 | 0.55 | 100 | 1001.5 |
| 20260901193522 | 70 | 229 | 0.0 | 1.0 | 0.00 | 0.55 | 0.55 | 100 | 1001.5 |
| 20260901193028 | 70 | 230 | 0.0 | 1.0 | 0.00 | 0.55 | 0.55 | 100 | 1001.4 |
| 20260901192524 | 70 | 230 | 0.0 | 1.0 | 0.00 | 0.55 | 0.55 | 100 | 1001.3 |
| 20260901192034 | 70 | 129 | 0.0 | 1.0 | 0.00 | 0.55 | 0.55 | 100 | 1001.3 |
| 20260901191523 | 70 | 129 | 0.0 | 1.0 | 0.00 | 0.55 | 0.55 | 100 | 1001.3 |
| 20260901191022 | 70 | 129 | 0.0 | 1.0 | 0.00 | 0.55 | 0.55 | 100 | 1001.3 |
| 20260901190535 | 69 | 129 | 0.0 | 1.0 | 0.00 | 0.55 | 0.55 | 100 | 1001.3 |
| 20260901190042 | 70 | 281 | 0.0 | 1.0 | 0.00 | 0.55 | 0.55 | 100 | 1001.4 |
| 20260901185530 | 70 | 111 | 0.0 | 1.0 | 0.00 | 0.55 | 0.55 | 100 | 1001.4 |
| 20260901185059 | 70 | 112 | 0.0 | 1.0 | 0.00 | 0.55 | 0.55 | 100 | 1001.3 |
| 20260901184538 | 70 | 112 | 0.0 | 1.0 | 0.00 | 0.55 | 0.55 | 100 | 1001.3 |
| 20260901184044 | 69 | 118 | 0.0 | 1.0 | 0.00 | 0.55 | 0.55 | 100 | 1001.4 |
| 20260901183552 | 70 | 123 | 0.0 | 0.0 | 0.00 | 0.55 | 0.55 | 100 | 1001.5 |
| 20260901183053 | 69 | 122 | 0.0 | 2.0 | 0.00 | 0.55 | 0.55 | 100 | 1001.5 |
| 20260901182541 | 69 | 122 | 0.0 | 2.0 | 0.00 | 0.55 | 0.55 | 100 | 1001.5 |
| 20260901182049 | 68 | 271 | 0.0 | 1.0 | 0.00 | 0.55 | 0.55 | 100 | 1001.5 |
| 20260901181534 | 68 | 120 | 0.0 | 1.0 | 0.00 | 0.55 | 0.55 | 100 | 1001.5 |
| 20260901181045 | 68 | 150 | 0.0 | 2.0 | 0.00 | 0.55 | 0.55 | 100 | 1001.5 |
| 20260901180528 | 68 | 150 | 0.0 | 2.0 | 0.00 | 0.55 | 0.55 | 100 | 1001.5 |
| 20260901180036 | 68 | 107 | 0.0 | 1.0 | 0.00 | 0.55 | 0.55 | 100 | 1001.5 |
| 20260901175546 | 68 | 104 | 0.0 | 2.0 | 0.00 | 0.55 | 0.55 | 100 | 1001.5 |
| 20260901175026 | 68 | 282 | 0.0 | 2.0 | 0.00 | 0.55 | 0.55 | 100 | 1001.5 |
| 20260901174535 | 68 | 266 | 0.0 | 1.0 | 0.01 | 0.55 | 0.55 | 100 | 1001.4 |
| 20260901174045 | 68 | 160 | 0.0 | 0.0 | 0.01 | 0.55 | 0.55 | 100 | 1001.5 |
| 20260901173528 | 68 | 147 | 0.0 | 1.0 | 0.01 | 0.55 | 0.55 | 100 | 1001.5 |
| 20260901173036 | 68 | 146 | 0.0 | 1.0 | 0.02 | 0.55 | 0.55 | 100 | 1001.5 |
| 20260901172546 | 67 | 135 | 0.0 | 3.0 | 0.03 | 0.55 | 0.55 | 100 | 1001.4 |
| 20260901172025 | 67 | 188 | 0.0 | 3.0 | 0.03 | 0.55 | 0.55 | 100 | 1001.4 |
| 20260901171535 | 67 | 314 | 0.0 | 2.0 | 0.04 | 0.55 | 0.55 | 100 | 1001.4 |
| 20260901171059 | 68 | 233 | 0.0 | 1.0 | 0.04 | 0.55 | 0.55 | 100 | 1001.4 |
| 20260901170611 | 68 | 220 | 0.0 | 1.0 | 0.04 | 0.55 | 0.55 | 100 | 1001.4 |
| 20260901170026 | 68 | 263 | 0.0 | 1.0 | 0.04 | 0.55 | 0.55 | 100 | 1001.4 |
| 20260901165535 | 67 | 271 | 0.0 | 1.0 | 0.04 | 0.55 | 0.55 | 100 | 1001.3 |